KQA601 HKJK-HKKI

Flight info

Callsign KQA601
Flight time 0h 37m
Altitude 24000
Route ANTUK2D APKUB DCT NEVON NEVON1A
Aircraft B738/M-SDE1E2E3FGHIJ2J3J4J5M1RWXYZ/LB1D1

Departure

Time 2026-04-14 06:16
Airport Jomo Kenyatta International Airport (HKJK)

Arrival

Time 2026-04-14 06:54
Airport Kisumu International Airport (HKKI)
Time Latitude Longitude Altitude Speed Heading
2026-04-14 06:05 -1.32882 36.92423 5320 ft 0 kts 156°
2026-04-14 06:10 -1.32880 36.92422 5316 ft 1 kts 156°
2026-04-14 06:10 -1.32863 36.92416 5314 ft 3 kts 159°
2026-04-14 06:10 -1.32844 36.92409 5313 ft 3 kts 163°
2026-04-14 06:10 -1.32825 36.92404 5318 ft 3 kts 170°
2026-04-14 06:11 -1.32805 36.92401 5316 ft 3 kts 184°
2026-04-14 06:11 -1.32787 36.92405 5317 ft 3 kts 217°
2026-04-14 06:11 -1.32779 36.92413 5318 ft 1 kts 248°
2026-04-14 06:11 -1.32778 36.92416 5314 ft 0 kts 248°
2026-04-14 06:14 -1.32795 36.92376 5315 ft 13 kts 243°
2026-04-14 06:14 -1.32853 36.92283 5317 ft 17 kts 258°
2026-04-14 06:14 -1.32789 36.92169 5320 ft 22 kts 267°
2026-04-14 06:14 -1.32885 36.92023 5327 ft 31 kts 234°
2026-04-14 06:15 -1.32999 36.91853 5335 ft 22 kts 263°
2026-04-14 06:15 -1.32889 36.91741 5338 ft 28 kts 324°
2026-04-14 06:15 -1.32745 36.91670 5337 ft 18 kts 22°
2026-04-14 06:15 -1.32653 36.91782 5333 ft 41 kts 54°
2026-04-14 06:16 -1.32341 36.92204 5320 ft 109 kts 53°
2026-04-14 06:16 -1.31780 36.92977 5306 ft 164 kts 54°
2026-04-14 06:16 -1.31033 36.93978 5675 ft 184 kts 52°
2026-04-14 06:16 -1.30213 36.94913 6743 ft 175 kts 51°
2026-04-14 06:17 -1.29634 36.95983 7300 ft 188 kts 80°
2026-04-14 06:17 -1.29914 36.97336 7386 ft 219 kts 122°
2026-04-14 06:17 -1.31118 36.98265 8051 ft 224 kts 160°
2026-04-14 06:17 -1.32678 36.98255 8668 ft 232 kts 190°
2026-04-14 06:18 -1.34210 36.97543 8840 ft 259 kts 217°
2026-04-14 06:18 -1.35286 36.96042 9122 ft 278 kts 251°
2026-04-14 06:18 -1.35700 36.94130 9655 ft 283 kts 259°
2026-04-14 06:18 -1.36083 36.92197 10233 ft 286 kts 257°
2026-04-14 06:19 -1.36541 36.90230 10727 ft 292 kts 256°
2026-04-14 06:19 -1.37051 36.88229 11018 ft 308 kts 255°
2026-04-14 06:19 -1.37612 36.86083 11140 ft 333 kts 257°
2026-04-14 06:19 -1.37721 36.83702 11345 ft 355 kts 281°
2026-04-14 06:20 -1.36958 36.81328 11890 ft 362 kts 292°
2026-04-14 06:20 -1.36009 36.78994 12193 ft 362 kts 294°
2026-04-14 06:20 -1.35028 36.76663 12231 ft 365 kts 294°
2026-04-14 06:20 -1.34039 36.74318 12224 ft 366 kts 294°
2026-04-14 06:21 -1.33058 36.71972 12220 ft 365 kts 294°
2026-04-14 06:21 -1.32089 36.69636 12220 ft 364 kts 293°
2026-04-14 06:21 -1.31127 36.67299 12229 ft 365 kts 293°
2026-04-14 06:21 -1.30161 36.64942 12229 ft 367 kts 293°
2026-04-14 06:22 -1.29194 36.62576 12208 ft 369 kts 293°
2026-04-14 06:22 -1.28228 36.60207 12187 ft 368 kts 293°
2026-04-14 06:22 -1.27262 36.57838 12185 ft 367 kts 293°
2026-04-14 06:22 -1.26301 36.55478 12168 ft 366 kts 293°
2026-04-14 06:23 -1.25346 36.53135 12180 ft 364 kts 293°
2026-04-14 06:23 -1.24392 36.50794 12160 ft 362 kts 293°
2026-04-14 06:23 -1.23441 36.48461 12186 ft 362 kts 293°
2026-04-14 06:23 -1.22491 36.46130 12186 ft 363 kts 293°
2026-04-14 06:24 -1.21536 36.43786 12183 ft 365 kts 293°
2026-04-14 06:24 -1.20590 36.41465 12185 ft 366 kts 293°
2026-04-14 06:24 -1.19628 36.39107 12185 ft 367 kts 293°
2026-04-14 06:24 -1.18654 36.36716 12182 ft 368 kts 293°
2026-04-14 06:25 -1.17698 36.34371 12281 ft 373 kts 293°
2026-04-14 06:25 -1.16720 36.31972 13016 ft 374 kts 293°
2026-04-14 06:25 -1.15738 36.29562 13791 ft 374 kts 293°
2026-04-14 06:25 -1.14798 36.27256 14434 ft 376 kts 293°
2026-04-14 06:26 -1.13765 36.24722 15027 ft 381 kts 293°
2026-04-14 06:26 -1.12748 36.22225 15641 ft 384 kts 293°
2026-04-14 06:26 -1.11752 36.19783 16242 ft 387 kts 292°
2026-04-14 06:26 -1.10730 36.17276 16795 ft 392 kts 292°
2026-04-14 06:27 -1.09684 36.14748 17464 ft 393 kts 295°
2026-04-14 06:27 -1.08299 36.12384 17898 ft 399 kts 306°
2026-04-14 06:27 -1.06674 36.10136 18530 ft 399 kts 307°
2026-04-14 06:27 -1.04991 36.07905 18963 ft 404 kts 308°
2026-04-14 06:28 -1.03290 36.05661 19514 ft 404 kts 308°
2026-04-14 06:28 -1.01599 36.03408 19981 ft 406 kts 307°
2026-04-14 06:28 -0.99913 36.01137 20132 ft 404 kts 307°
2026-04-14 06:28 -0.98254 35.98882 20170 ft 406 kts 307°
2026-04-14 06:29 -0.96571 35.96581 20166 ft 412 kts 307°
2026-04-14 06:29 -0.94885 35.94266 20174 ft 412 kts 307°
2026-04-14 06:29 -0.93201 35.91949 20170 ft 412 kts 307°
2026-04-14 06:29 -0.91519 35.89634 20169 ft 412 kts 307°
2026-04-14 06:30 -0.89836 35.87318 20165 ft 413 kts 307°
2026-04-14 06:30 -0.88152 35.85000 20161 ft 412 kts 306°
2026-04-14 06:30 -0.86469 35.82684 20155 ft 411 kts 307°
2026-04-14 06:30 -0.84792 35.80378 20157 ft 411 kts 307°
2026-04-14 06:31 -0.83115 35.78071 20150 ft 410 kts 307°
2026-04-14 06:31 -0.81436 35.75761 20160 ft 413 kts 307°
2026-04-14 06:31 -0.79744 35.73433 20157 ft 414 kts 307°
2026-04-14 06:31 -0.78063 35.71120 20145 ft 409 kts 307°
2026-04-14 06:32 -0.76399 35.68830 20154 ft 409 kts 307°
2026-04-14 06:32 -0.74718 35.66517 20141 ft 412 kts 307°
2026-04-14 06:32 -0.73030 35.64197 20137 ft 410 kts 306°
2026-04-14 06:32 -0.71369 35.61912 19920 ft 404 kts 307°
2026-04-14 06:33 -0.69716 35.59638 19452 ft 404 kts 307°
2026-04-14 06:33 -0.68059 35.57359 18753 ft 408 kts 306°
2026-04-14 06:33 -0.66381 35.55051 17911 ft 415 kts 307°
2026-04-14 06:34 -0.62949 35.50331 16239 ft 422 kts 307°
2026-04-14 06:34 -0.61226 35.47960 15484 ft 423 kts 307°
2026-04-14 06:34 -0.59502 35.45589 14757 ft 423 kts 307°
2026-04-14 06:34 -0.57787 35.43230 14009 ft 423 kts 307°
2026-04-14 06:35 -0.56059 35.40853 13167 ft 424 kts 307°
2026-04-14 06:35 -0.54320 35.38461 12281 ft 425 kts 307°
2026-04-14 06:35 -0.52579 35.36067 11381 ft 427 kts 307°
2026-04-14 06:35 -0.50846 35.33683 10845 ft 416 kts 307°
2026-04-14 06:36 -0.49201 35.31417 10755 ft 388 kts 307°
2026-04-14 06:36 -0.47679 35.29321 10756 ft 361 kts 307°
2026-04-14 06:36 -0.46247 35.27350 10736 ft 340 kts 307°
2026-04-14 06:36 -0.44870 35.25458 10744 ft 337 kts 307°
2026-04-14 06:37 -0.43523 35.23529 10723 ft 340 kts 300°
2026-04-14 06:37 -0.42718 35.21312 10658 ft 341 kts 285°
2026-04-14 06:37 -0.42162 35.19010 10403 ft 339 kts 283°
2026-04-14 06:37 -0.41635 35.16725 10167 ft 336 kts 283°
2026-04-14 06:38 -0.41112 35.14451 9946 ft 335 kts 283°
2026-04-14 06:38 -0.40592 35.12214 9678 ft 327 kts 284°
2026-04-14 06:38 -0.40080 35.10041 9412 ft 315 kts 284°
2026-04-14 06:38 -0.39583 35.07954 9160 ft 304 kts 284°
2026-04-14 06:39 -0.39103 35.05946 9044 ft 290 kts 284°
2026-04-14 06:39 -0.38644 35.04033 9035 ft 274 kts 284°
2026-04-14 06:39 -0.38218 35.02261 9035 ft 253 kts 284°
2026-04-14 06:39 -0.37818 35.00609 9025 ft 235 kts 284°
2026-04-14 06:40 -0.37452 34.99083 9007 ft 218 kts 284°
2026-04-14 06:40 -0.37115 34.97675 8968 ft 203 kts 284°
2026-04-14 06:40 -0.36786 34.96318 9007 ft 203 kts 284°
2026-04-14 06:40 -0.36441 34.94892 9002 ft 211 kts 284°
2026-04-14 06:41 -0.36103 34.93493 9023 ft 210 kts 284°
2026-04-14 06:41 -0.35764 34.92090 8982 ft 204 kts 284°
2026-04-14 06:41 -0.35418 34.90666 9002 ft 212 kts 284°
2026-04-14 06:41 -0.35100 34.89259 9016 ft 209 kts 283°
2026-04-14 06:42 -0.34764 34.87842 9020 ft 210 kts 284°
2026-04-14 06:42 -0.34417 34.86432 9020 ft 210 kts 284°
2026-04-14 06:42 -0.34070 34.85014 9002 ft 208 kts 284°
2026-04-14 06:42 -0.33729 34.83613 9021 ft 208 kts 284°
2026-04-14 06:43 -0.33388 34.82211 9026 ft 209 kts 284°
2026-04-14 06:43 -0.33044 34.80799 9008 ft 208 kts 284°
2026-04-14 06:43 -0.32705 34.79406 9029 ft 206 kts 284°
2026-04-14 06:43 -0.32366 34.78006 9040 ft 208 kts 284°
2026-04-14 06:44 -0.32027 34.76598 9043 ft 210 kts 284°
2026-04-14 06:44 -0.31683 34.75178 9034 ft 210 kts 284°
2026-04-14 06:44 -0.31345 34.73779 9032 ft 210 kts 284°
2026-04-14 06:44 -0.30997 34.72342 9024 ft 210 kts 284°
2026-04-14 06:45 -0.30656 34.70928 9032 ft 209 kts 284°
2026-04-14 06:45 -0.30315 34.69519 9030 ft 209 kts 284°
2026-04-14 06:45 -0.29973 34.68102 9035 ft 209 kts 284°
2026-04-14 06:45 -0.29633 34.66691 9031 ft 209 kts 284°
2026-04-14 06:46 -0.28952 34.63872 9030 ft 208 kts 284°
2026-04-14 06:46 -0.28611 34.62458 9039 ft 211 kts 284°
2026-04-14 06:46 -0.28265 34.61026 9037 ft 213 kts 284°
2026-04-14 06:47 -0.27905 34.59583 9028 ft 215 kts 289°
2026-04-14 06:47 -0.27085 34.58388 8929 ft 210 kts 327°
2026-04-14 06:47 -0.25769 34.57798 8710 ft 205 kts 342°
2026-04-14 06:47 -0.24898 34.57481 8520 ft 200 kts 342°
2026-04-14 06:48 -0.23203 34.56852 8174 ft 189 kts 342°
2026-04-14 06:48 -0.21974 34.56395 7949 ft 188 kts 342°
2026-04-14 06:48 -0.20744 34.55937 7734 ft 190 kts 342°
2026-04-14 06:48 -0.19910 34.55629 7486 ft 193 kts 343°
2026-04-14 06:49 -0.18656 34.55580 7324 ft 177 kts 27°
2026-04-14 06:49 -0.17730 34.56396 7208 ft 183 kts 52°
2026-04-14 06:49 -0.16986 34.57398 6969 ft 175 kts 56°
2026-04-14 06:49 -0.16324 34.58363 6729 ft 162 kts 59°
2026-04-14 06:50 -0.15787 34.59306 6518 ft 151 kts 63°
2026-04-14 06:50 -0.15299 34.60224 6344 ft 150 kts 63°
2026-04-14 06:50 -0.14811 34.61150 6133 ft 151 kts 63°
2026-04-14 06:50 -0.14336 34.62077 5903 ft 147 kts 65°
2026-04-14 06:51 -0.13855 34.62977 5730 ft 149 kts 63°
2026-04-14 06:51 -0.13370 34.63878 5542 ft 145 kts 63°
2026-04-14 06:51 -0.12901 34.64765 5343 ft 145 kts 64°
2026-04-14 06:51 -0.12444 34.65634 5170 ft 138 kts 63°
2026-04-14 06:52 -0.12012 34.66451 4969 ft 128 kts 63°
2026-04-14 06:52 -0.11592 34.67248 4819 ft 139 kts 62°
2026-04-14 06:52 -0.11110 34.68160 4549 ft 149 kts 62°
2026-04-14 06:52 -0.10655 34.69022 4338 ft 132 kts 62°
2026-04-14 06:53 -0.10235 34.69821 4125 ft 131 kts 63°
2026-04-14 06:53 -0.09819 34.70624 3954 ft 129 kts 59°
2026-04-14 06:53 -0.09408 34.71385 3775 ft 123 kts 61°
2026-04-14 06:53 -0.09027 34.72085 3787 ft 85 kts 62°
2026-04-14 06:54 -0.08797 34.72511 3776 ft 64 kts 62°
2026-04-14 06:54 -0.08650 34.72783 3778 ft 29 kts 62°
2026-04-14 06:54 -0.08563 34.72839 3779 ft 13 kts 339°
2026-04-14 06:54 -0.08496 34.72802 3782 ft 11 kts 330°
2026-04-14 06:55 -0.08442 34.72825 3776 ft 10 kts 75°
2026-04-14 06:55 -0.08417 34.72883 3777 ft 6 kts 58°
2026-04-14 06:55 -0.08377 34.72886 3776 ft 6 kts 336°
2026-04-14 06:55 -0.08338 34.72873 3779 ft 6 kts 13°
2026-04-14 06:56 -0.08306 34.72896 3778 ft 6 kts 65°
2026-04-14 06:56 -0.08297 34.72915 3781 ft 0 kts 64°